Regional Weather Roundup
Issued by NWS

Home | Current Version | Previous Version | Graphics & Text | Print | Product List | Glossary On
Versions: 1 2 3 4 5 6 7 8 9 10 11 12 13 14 15 16 17 18 19 20 21 22 23 24 25 26 27 28 29 30 31 32 33 34 35 36 37 38 39 40 41 42 43 44 45 46 47 48 49 50
000
ASUS43 KLSX 251559
RWRMO

WEATHER SUMMARY FOR MISSOURI
NATIONAL WEATHER SERVICE SPRINGFIELD MO
1100 AM CDT SUN JUN 25 2017

NOTE: "FAIR" INDICATES FEW OR NO CLOUDS BELOW 12,000 FEET WITH NO
       SIGNIFICANT WEATHER AND/OR OBSTRUCTIONS TO VISIBILITY.
       CURRENT SKY AND/OR WEATHER CONDITIONS ARE NOT AVAILABLE FOR
       CHILLICOTHE AND FARMINGTON.

MOZ001>031-035>038-043-044-053-054-251700-
...NORTHERN AND WESTERN MISSOURI...

CITY           SKY/WX    TMP DP  RH WIND       PRES   REMARKS
KANSAS CTY INT MOSUNNY   73  46  38 N13       30.30S
KANSAS C DTWN  SUNNY     75  46  35 N8        30.29S
LEE`S SUMMIT   SUNNY     74  49  41 N8        30.30S
ST JOSEPH      SUNNY     70  47  43 N15G22    30.31S
CHILLICOTHE      N/A     72  44  36 VRB7      30.29S
KIRKSVILLE     SUNNY     69  46  43 NW15G23   30.26S

$$
MOZ066>068-077>081-088>096-101>105-251700-
...SOUTHWEST MISSOURI...

CITY           SKY/WX    TMP DP  RH WIND       PRES   REMARKS
SPRINGFIELD    SUNNY     77  56  48 NW9       30.29S
JOPLIN         SUNNY     81  57  43 NW6       30.30S
BRANSON        MOSUNNY   77  48  36 NW6       30.32R

$$
MOZ032>034-039>042-045>050-055>058-069>072-251700-
...CENTRAL MISSOURI...

CITY           SKY/WX    TMP DP  RH WIND       PRES   REMARKS
COLUMBIA       SUNNY     75  51  43 NW13G20   30.26S
JEFFERSON CITY SUNNY     75  52  44 W7        30.25S
ROLLA          SUNNY     74  55  51 W12G18    30.26R
SEDALIA        SUNNY     75  55  49 NW8       30.29R
WARRENSBURG    SUNNY     72  50  46 N9        30.28F
OSAGE BEACH    SUNNY     75  54  47 W9        30.29R

$$
MOZ051-052-059>065-251700-
...EAST CENTRAL MISSOURI...

CITY           SKY/WX    TMP DP  RH WIND       PRES   REMARKS
ST LOUIS INTL  MOSUNNY   77  50  38 NW6       30.23R
SPIRIT OF STL  SUNNY     76  54  46 NW9       30.22S
ST CHARLES     SUNNY     74  50  42 NW7       30.22S

$$
MOZ072>076-082>087-097>100-106>115-251700-
...SOUTH CENTRAL AND SOUTHEAST MISSOURI...

CITY           SKY/WX    TMP DP  RH WIND       PRES   REMARKS
CAPE GIRARDEAU SUNNY     77  56  48 W7        30.24S
FARMINGTON     SUNNY     78  50  37 W13G21    30.26S
POPLAR BLUFF   SUNNY     79  53  40 W6        30.25S
WEST PLAINS    SUNNY     80  49  33 NW9       30.30S

$$




USA.gov is the U.S. government's official web portal to all federal, state and local government web resources and services.